Location: Trout Lake
(45.9980°N, 121.5270°W)
Time: 19:16:23
(UTC-08:00)

CZ-2D R/B - Pass Details

Date: 06 December 2023
Orbit: 490 x 503 km, 97.4° (Epoch: 22 February)

Event Time Altitude Azimuth Distance (km) Brightness Sun altitude
Rises 17:11:50 0° 173° (S) 2,570 7.0 -8.6°
Reaches altitude 10° 17:13:55 10° 176° (S) 1,689 6.1 -8.9°
Maximum altitude 17:17:32 64° 259° (W) 550 3.6 -9.5°
Drops below altitude 10° 17:21:09 10° 342° (NNW) 1,695 5.8 -10.1°
Sets 17:23:15 0° 345° (NNW) 2,581 6.7 -10.4°
